Location: Rock Island IL
(41.5000°N, 90.5500°W)
Time: 00:51:31
(UTC-06:00)

Daily predictions for brighter satellites

Satellite Brightness Start Highest point End
(mag) Time Altitude Azimuth Time Altitude Azimuth Time Altitude Azimuth
Cosmos 2237 Rocket 3.0 04:36:10 44° SSE 04:36:10 44° SSE 04:39:57 10° SSE
USA 229 DEB 4.1 04:33:34 47° N 04:35:26 60° NE 04:42:35 10° SE
USA 229 4.1 04:33:38 46° N 04:35:32 60° NE 04:42:40 10° SE
SL-16 R/B 3.3 04:35:44 33° NNE 04:37:25 41° ENE 04:42:44 10° SE
Tsikada Rocket 4.3 04:33:33 10° N 04:39:56 66° E 04:46:12 10° SSE
Meteor 2-17 Rocket 4.3 04:37:27 10° S 04:43:30 82° E 04:49:33 10° N
Cosmos 2297 Rocket 2.2 04:46:57 79° E 04:46:57 79° E 04:52:28 10° NNE
Aureole 2 Rocket 3.7 04:57:16 51° ESE 04:57:16 51° ESE 05:00:46 10° SSE
Cosmos 540 Rocket 3.5 04:58:35 70° SSE 04:58:35 70° SSE 05:03:05 10° SSE
Cosmos 2227 Rocket 2.7 05:00:40 46° N 05:00:40 46° N 05:04:50 10° NNE
OAO 2 Rocket 4.1 05:04:02 38° S 05:04:07 39° S 05:08:40 10° ESE
ISS -1.1 05:06:00 25° ENE 05:06:00 25° ENE 05:07:46 10° E
Cosmos 304 Rocket 4.4 05:05:04 33° N 05:06:56 54° ENE 05:11:36 10° SE
Cosmos 1725 Rocket 3.8 05:00:47 10° SSW 05:07:00 73° W 05:13:19 10° N
Cosmos 1864 Rocket 4.3 05:01:23 10° SSW 05:07:30 73° W 05:13:40 10° N
SKYMED 2 3.8 05:04:38 10° SSE 05:08:56 68° ENE 05:09:50 52° NNE
Meteor 1-21 Rocket 4.3 05:10:32 54° SW 05:10:32 54° SW 05:15:11 10° S
Meteor 1-4 Rocket 3.5 05:08:32 10° S 05:12:06 48° E 05:15:45 10° NNE
CZ-4 R/B 4.3 05:17:28 10° NE 05:20:17 18° E 05:23:06 10° SE
USA 234 3.9 05:17:08 10° ESE 05:23:22 49° NNE 05:27:24 22° NNW
ERBS 4.0 05:23:54 26° NNE 05:24:15 26° NE 05:27:12 10° E
Cosmos 2082 4.0 05:27:38 42° WNW 05:27:38 42° WNW 05:32:58 10° NNE
Cosmos 2333 Rocket 3.8 05:32:19 18° SW 05:32:19 18° SW 05:34:21 10° SSW
NOSS 3-1 (C) 4.4 05:24:46 17° NNW 05:30:53 62° NE 05:39:05 10° SE
Ariane Rocket 3.2 05:29:19 10° NNE 05:34:26 71° ESE 05:39:30 10° S
SL-8 R/B 4.5 05:34:13 33° NNW 05:35:35 41° NNE 05:40:08 10° E
Cosmos 2221 3.9 05:31:58 10° SSE 05:36:01 40° E 05:40:05 10° NNE
ATLAS CENTAUR R/B 4.4 05:42:38 10° N 05:44:31 12° NNE 05:47:06 10° NE
Cosmos 1743 Rocket 4.0 05:46:44 38° WNW 05:47:08 39° W 05:51:13 10° SSW
Cosmos 1328 3.7 05:45:28 25° NNW 05:47:40 64° W 05:51:36 10° S
DMSP B5D1-3 4.5 05:43:01 10° S 05:48:06 63° WSW 05:53:11 10° NNW
Cosmos 2058 3.0 05:49:05 10° N 05:53:13 79° E 05:57:21 10° S
Cosmos 1842 Rocket 3.8 05:52:43 10° SSW 05:56:50 42° WNW 06:00:59 10° N
COSMO-SKYMED 1 3.2 05:53:04 10° SSW 05:57:01 34° W 05:58:24 28° WNW
Cosmos 2233 Rocket 4.2 05:51:40 10° SSW 05:57:38 47° WNW 06:03:43 10° N
PAYLOAD A 4.1 05:56:51 10° NNE 06:01:56 78° ESE 06:06:48 10° S
CSL-04 DEB 4.5 05:58:02 10° NNE 06:02:27 85° WNW 06:06:47 10° SSW
CZ-2C R/B 3.1 05:59:37 10° NNE 06:04:08 52° E 06:08:34 10° S
SeaSat 1 4.4 06:04:04 10° NNW 06:04:58 12° NNW 06:04:58 12° NNW
Cosmos 1805 Rocket 3.9 06:02:25 10° N 06:06:51 66° E 06:11:12 10° SSE
Cosmos 968 Rocket 3.7 06:03:11 10° SW 06:08:14 47° WNW 06:13:21 10° N
Cosmos 2227 4.2 06:03:34 10° SSW 06:09:11 89° ESE 06:14:50 10° NNE
CSL-04 Rocket 3.5 06:05:14 10° N 06:10:31 67° WNW 06:15:44 10° SSW
Cosmos 2151 3.2 06:06:46 10° NNW 06:10:49 46° W 06:14:52 10° SSW
Genesis I 3.5 06:08:32 14° NNW 06:11:54 66° NE 06:15:47 10° SE
Helios 1B rocket 3.7 06:08:13 10° SE 06:12:05 41° ENE 06:15:58 10° N
SMAP 3.8 06:09:10 10° NNE 06:13:47 58° E 06:18:21 10° S
Cosmos 1500 Rocket 4.4 06:11:49 16° NW 06:14:32 28° W 06:18:20 10° SSW
Cosmos 2034 Rocket 4.1 06:08:49 10° S 06:14:58 80° E 06:21:14 10° N
Cosmos 773 Rocket 4.0 06:11:40 10° NNW 06:16:58 77° WSW 06:22:15 10° SSE
Cosmos 2237 Rocket 4.0 06:18:04 12° WSW 06:18:04 12° WSW 06:19:43 10° WSW
Cosmos 1356 Rocket 3.5 06:14:24 10° N 06:18:29 77° ENE 06:22:38 10° SSE
Cosmos 1703 3.2 06:15:48 10° N 06:19:44 88° W 06:23:40 10° S
SL-16 R/B 3.1 06:17:40 15° NW 06:21:20 29° WSW 06:26:06 10° SSW
Tiangong 2 4.1 06:23:14 10° S 06:24:51 13° SE 06:26:29 10° ESE
Nadezhda 4 Rocket 4.4 06:19:01 10° N 06:25:21 69° E 06:31:36 10° SSE
Cosmos 1340 Rocket 3.3 06:26:01 10° NNW 06:29:40 38° W 06:33:20 10° SSW
Cosmos 2297 Rocket 3.6 06:28:51 13° W 06:31:31 18° NW 06:35:15 10° N
SPOT 3 Rocket 3.9 06:26:38 10° NNE 06:31:50 72° ESE 06:37:03 10° S
Sich 1 3.1 06:29:49 10° N 06:34:13 85° E 06:38:32 10° S
Cosmos 2344 4.4 06:27:12 10° SSW 06:34:41 59° ESE 06:42:55 10° NE
Cosmos 1633 Rocket 3.2 06:30:39 10° N 06:35:01 76° E 06:39:21 10° SSE
SJ-12 3.9 06:31:19 10° N 06:35:22 60° WNW 06:39:22 10° SSW
Cosmos 1777 Rocket 4.2 06:33:34 10° SW 06:38:35 47° WNW 06:43:38 10° N
Cosmos 1271 Rocket 3.7 06:35:45 10° SW 06:38:57 25° WNW 06:42:10 10° NNW
Cosmos 1328 Rocket 4.4 06:35:04 10° S 06:39:16 53° E 06:43:31 10° NNE
Cosmos 1184 Rocket 2.7 06:36:16 10° NNW 06:39:35 76° W 06:42:52 10° S
NOSS 3-1 (A) 4.1 06:32:35 10° NW 06:40:15 74° WSW 06:48:37 10° SSE
ISS -2.2 06:38:40 12° WNW 06:41:12 30° SW 06:44:07 10° SSE
IRS-1A Rocket 4.5 06:38:36 10° N 06:44:21 54° WNW 06:49:59 10° SW
Cosmos 2227 Rocket 4.0 06:42:49 10° WNW 06:44:28 11° NW 06:46:07 10° NNW
IDEFIX/ARIANE 42P 2.6 06:39:36 10° N 06:44:50 64° WNW 06:50:01 10° SSW
Cosmos 1464 Rocket 4.3 06:40:41 10° SSW 06:46:41 44° WNW 06:52:40 10° N
Cosmos 1484 Rocket 3.2 06:44:33 10° NNE 06:48:36 72° ESE 06:52:34 10° S
ATLAS 2AS CENTAUR R/B 3.8 06:41:20 10° NNW 06:49:10 49° NE 06:56:30 10° ESE
CZ-3 Stage 3 4.3 06:45:54 10° WSW 06:51:21 35° S 07:12:59 10° ESE
YAOGAN 1 2.6 06:47:25 10° N 06:51:43 62° WNW 06:55:58 10° SSW
SL-12 R/B (Aux Motor) 4.5 06:48:46 10° W 06:53:02 49° NNW 06:55:12 10° ENE
CZ-4 R/B 2.0 06:51:43 10° N 06:55:25 35° WNW 06:59:09 10° SW
